Wetbulb
52.94 52.80 53.02 53.14 53.29 53.43 53.60 53.88 53.86 53.74 53.62 53.65 53.60 53.54 53.48 53.22 52.67 47.07 41.99 45.84 48.32 54.14 55.52 51.73 48.28 48.47 48.88 47.34 53.07 51.92 43.84 41.41 41.66 42.85 44.19 46.70 48.51 49.83 51.22 52.02 58.56 58.21 58.11 58.36 60.49
52.43 52.40 52.84 52.87 53.02 53.09 53.36 53.53 53.58 53.49 53.50 53.48 53.31 53.22 53.11 52.60 45.95 42.01 48.40 51.82 53.76 54.64 48.42 47.55 43.94 45.59 44.64 45.59 48.72 48.18 44.20 44.01 45.40 45.86 45.78 47.11 48.14 47.80 48.24 51.74 50.75 51.34 56.89 59.48 58.57
52.03 52.16 52.29 52.66 52.69 52.85 53.15 53.43 53.40 53.27 53.41 53.21 53.04 52.68 52.37 49.77 38.71 38.14 51.16 53.67 54.45 52.19 48.85 48.57 46.96 45.56 41.43 43.77 44.15 47.01 43.46 48.03 47.52 47.71 48.33 46.95 46.53 49.87 48.06 47.12 48.67 50.55 54.59 58.05 56.96
51.50 51.91 52.26 52.27 52.36 52.58 53.10 53.28 53.18 53.15 53.22 53.22 52.72 52.33 52.32 45.65 27.62 42.01 51.53 52.43 53.62 49.28 46.82 45.08 44.47 40.70 38.08 38.33 43.04 41.47 47.45 49.03 49.68 49.72 47.94 46.53 48.25 47.02 48.82 48.21 51.40 55.77 56.45 57.85 56.28
51.46 51.76 51.87 51.77 52.19 52.64 52.89 52.65 52.76 53.02 53.05 52.94 52.74 52.35 47.92 38.53 37.92 46.50 51.05 50.40 49.41 47.02 43.65 42.14 39.89 39.67 35.29 38.99 40.87 40.92 43.70 48.80 50.27 50.34 49.07 49.35 46.45 46.04 48.71 50.90 50.14 58.96 56.96 56.17 56.80
51.52 51.57 51.63 51.78 51.89 52.12 52.31 52.60 52.90 52.91 52.58 52.83 52.95 51.56 43.90 33.97 45.60 46.98 46.14 48.93 48.31 46.67 44.00 43.35 41.29 42.67 39.00 37.03 36.74 44.14 44.47 47.60 49.05 49.76 50.43 48.54 46.89 47.30 48.12 50.95 49.04 57.46 57.15 56.78 55.08
51.26 51.16 51.13 51.35 51.80 51.88 51.95 52.73 52.93 52.28 52.20 52.92 51.93 49.34 43.27 39.47 46.94 47.25 49.11 48.40 48.99 46.93 43.75 45.59 44.97 40.99 40.18 37.28 43.08 42.12 39.36 45.71 48.09 48.94 49.06 49.49 46.10 44.04 48.57 49.02 47.93 47.93 56.73 57.99 56.78
51.27 51.29 51.50 51.52 51.61 51.58 52.33 52.76 51.95 51.60 52.00 52.18 51.72 45.89 38.68 47.75 48.00 48.27 49.25 48.02 49.28 48.83 47.28 47.34 46.06 42.45 41.34 42.84 40.43 36.59 41.51 38.45 46.01 48.57 48.68 48.20 41.27 46.32 47.73 47.16 46.42 46.56 47.40 56.27 57.73
50.88 50.99 51.10 51.29 51.26 51.50 52.31 51.62 50.23 50.71 50.35 50.42 44.88 41.76 35.41 47.48 44.16 48.13 49.55 46.45 46.70 47.06 47.84 47.75 45.14 40.40 40.86 34.24 33.86 35.70 35.30 38.03 42.41 48.35 45.89 46.08 41.79 45.98 48.93 47.91 46.19 46.09 45.92 48.17 56.69
50.56 50.47 50.90 51.02 50.97 51.78 51.34 48.65 47.72 46.00 44.80 47.03 44.33 35.28 38.87 37.72 43.91 47.76 49.71 48.96 44.79 44.78 43.53 42.36 40.73 34.52 34.84 32.78 27.55 29.21 32.32 37.14 39.57 44.17 44.75 43.25 41.39 45.57 47.18 46.60 46.48 45.81 46.00 45.63 52.37
50.33 50.35 50.70 50.68 50.90 51.53 44.66 36.48 32.84 31.28 36.19 32.63 33.97 35.71 37.80 42.03 46.91 46.30 46.93 46.27 45.45 40.00 35.13 36.90 34.61 28.37 32.72 34.21 35.32 35.25 35.76 36.84 40.43 44.70 42.57 41.88 42.03 43.83 46.37 46.01 45.42 46.41 45.59 45.34 48.06
50.20 50.57 50.84 50.89 50.91 49.64 41.43 35.90 34.83 35.86 30.04 36.85 37.85 37.98 40.40 41.36 39.59 43.04 46.69 41.17 37.75 34.37 36.59 34.31 30.60 35.70 36.36 37.66 35.70 36.32 35.20 35.30 41.69 44.30 42.54 41.47 40.39 43.22 44.93 45.58 46.38 46.18 45.85 45.78 43.25
50.00 50.47 50.24 50.06 49.94 43.33 39.38 38.50 43.59 41.73 31.02 33.17 35.73 35.04 37.47 41.42 39.13 39.54 42.05 40.70 38.40 33.87 33.69 32.11 33.26 36.56 36.48 35.49 35.67 34.58 32.79 33.99 38.10 42.17 40.37 39.94 37.50 39.47 43.48 45.15 46.34 47.41 45.91 46.36 45.69
49.24 49.51 49.51 49.85 40.79 40.03 37.88 42.83 43.68 39.94 13.04 25.09 29.76 35.53 37.63 37.76 35.79 43.29 44.42 39.51 36.47 33.18 34.46 33.57 36.80 35.43 36.19 34.42 33.27 30.11 36.74 38.35 39.64 37.03 32.15 36.24 26.90 34.15 40.78 41.97 43.92 45.89 46.85 45.63 46.54
49.07 48.82 50.17 46.03 39.23 37.55 39.70 42.81 42.48 32.74 7.00 26.45 29.38 39.73 37.48 36.57 37.63 38.25 42.68 39.16 34.05 33.28 32.55 31.21 31.21 30.89 31.85 32.48 34.16 31.38 37.30 36.13 36.08 31.75 30.40 30.89 28.22 31.47 36.65 37.06 40.69 44.38 45.62 47.01 45.55
48.86 48.64 47.20 42.40 40.38 40.12 42.45 39.56 33.98 14.89 7.05 21.75 29.22 29.49 30.66 32.60 34.80 37.08 36.96 38.72 37.86 31.96 32.18 32.00 36.40 33.76 31.10 34.55 35.45 35.73 33.80 32.54 31.19 30.47 23.02 28.96 28.80 29.36 32.92 35.47 37.30 40.40 41.53 44.18 45.50
48.78 48.71 45.32 42.42 34.27 41.24 40.38 32.05 15.03 8.91 20.54 15.93 23.77 28.08 27.72 27.81 31.25 33.07 31.26 30.42 30.08 21.25 22.46 26.97 29.45 34.40 35.28 31.20 34.80 33.26 28.50 21.35 18.84 17.06 19.96 28.08 27.52 30.65 36.56 38.30 37.01 37.25 37.76 38.46 39.77
48.63 48.03 44.97 43.06 41.01 40.07 32.66 20.77 7.63 2.82 6.24 24.99 27.10 27.17 24.56 27.18 28.69 30.12 29.61 27.91 33.18 31.48 27.42 20.68 17.98 31.49 35.91 31.66 28.29 30.69 27.72 20.73 12.82 16.66 21.39 27.71 24.66 30.17 35.03 37.33 37.45 37.12 37.47 37.81 38.42
45.86 38.53 38.74 40.80 41.55 35.63 24.61 6.89 9.63 7.15 23.11 25.16 25.11 17.61 16.98 26.14 26.62 26.19 23.28 26.98 31.47 32.36 28.25 26.71 19.36 33.62 34.72 35.27 32.57 28.87 24.45 28.91 22.94 15.21 19.34 23.48 28.16 33.27 34.74 34.67 34.92 35.05 35.67 35.56 36.68
36.99 34.98 35.54 40.36 39.60 29.98 18.41 14.78 10.44 23.77 27.78 26.79 14.03 20.23 7.70 15.00 20.13 19.11 23.05 27.12 27.89 33.44 35.45 31.32 19.03 29.60 32.42 33.90 33.19 30.70 31.94 23.98 21.84 9.29 11.63 20.91 22.94 24.35 29.52 31.30 33.29 33.66 34.23 35.89 37.13
34.91 26.59 34.83 39.06 33.20 23.32 12.02 7.60 12.52 26.19 28.64 26.05 20.38 13.91 20.35 15.59 14.65 19.00 22.68 27.04 27.46 31.28 33.78 33.23 27.00 24.22 29.18 29.82 29.12 28.89 26.71 27.17 25.70 23.35 17.84 16.93 20.75 27.73 29.79 31.66 31.77 32.94 34.79 35.71 37.36
29.84 18.65 34.84 35.14 20.61 6.91 7.76 11.21 27.97 27.71 29.21 26.26 26.02 25.97 23.01 22.96 17.53 17.44 20.82 25.47 29.44 29.82 27.38 32.62 31.60 25.71 28.74 34.04 33.79 32.42 28.75 27.56 20.01 20.22 21.80 23.30 21.85 31.06 30.70 32.17 33.53 34.07 35.04 35.59 37.36
23.47 21.53 35.07 32.13 13.47 12.92 20.75 12.44 24.12 26.61 27.72 26.58 23.86 26.37 27.03 24.32 14.32 23.50 21.20 29.00 29.53 27.42 27.91 30.59 24.65 20.44 21.93 24.80 29.56 29.59 30.63 31.15 28.76 26.81 22.72 18.10 21.03 32.05 32.22 34.03 35.21 34.67 35.40 35.26 35.78
23.03 18.37 22.99 27.78 22.21 16.38 12.18 9.42 14.60 28.11 28.36 28.97 27.53 27.87 24.29 21.23 19.45 16.21 23.67 27.60 29.61 28.77 33.89 32.24 25.34 19.13 15.20 20.19 27.14 27.81 30.78 31.85 27.83 19.97 22.83 24.80 25.81 30.65 32.51 33.79 34.99 34.11 33.79 34.42 36.22
22.28 17.38 17.39 14.72 17.32 17.63 15.65 16.33 15.49 16.14 26.60 28.69 25.49 26.30 22.88 14.19 18.96 15.99 19.12 24.96 27.57 29.91 27.70 23.42 11.56 21.51 24.30 25.37 26.68 26.49 28.89 30.96 31.20 29.46 26.27 25.89 26.39 32.22 33.89 33.67 32.68 34.27 35.83 36.42 36.76
26.26 21.35 20.72 15.01 22.78 19.89 17.71 12.98 20.45 22.66 24.28 23.09 21.92 26.41 25.21 18.87 21.21 16.05 24.28 22.75 21.61 25.95 24.21 26.20 8.31 14.01 8.72 20.63 21.44 23.16 25.06 25.16 26.81 30.36 30.60 30.53 28.36 32.25 32.92 31.85 30.50 31.87 33.54 34.33 34.80
31.35 29.41 26.10 26.70 20.37 17.12 17.04 19.37 22.83 26.01 27.10 28.01 27.24 26.40 24.82 25.49 26.49 25.92 27.05 26.77 26.52 23.68 17.02 15.34 5.56 1.90 2.81 12.17 13.15 8.52 18.11 24.29 24.62 25.69 26.12 23.93 27.04 29.22 29.67 30.37 30.23 30.38 31.66 33.46 33.93
MSLP
1022.39 1022.18 1022.13 1021.84 1021.54 1021.51 1021.19 1020.96 1020.68 1020.36 1019.99 1019.73 1019.35 1019.09 1018.86 1018.47 1018.10 1018.26 1017.73 1017.00 1016.58 1016.14 1015.85 1015.61 1015.78 1015.77 1015.66 1015.10 1014.29 1013.49 1012.54 1010.95 1010.71 1010.57 1010.36 1010.39 1010.27 1010.61 1010.49 1010.56 1010.62 1011.68 1011.80 1011.89 1012.32
1022.41 1022.24 1021.96 1021.70 1021.44 1021.03 1020.88 1020.58 1020.33 1020.12 1019.92 1019.68 1019.29 1018.96 1018.71 1018.51 1018.34 1017.78 1016.75 1016.50 1016.15 1015.76 1015.96 1015.89 1015.94 1016.18 1015.59 1014.71 1013.82 1012.94 1011.37 1010.05 1010.31 1010.28 1010.47 1010.60 1010.27 1010.85 1010.71 1011.12 1011.73 1011.20 1011.17 1011.73 1012.51
1022.38 1022.13 1021.81 1021.88 1021.58 1021.06 1020.84 1020.52 1020.23 1019.88 1019.62 1019.36 1019.08 1018.88 1018.73 1018.63 1018.52 1017.10 1016.26 1016.27 1016.22 1016.15 1016.13 1016.14 1015.91 1016.50 1015.78 1014.81 1013.77 1012.15 1010.69 1010.46 1010.08 1009.99 1010.18 1010.54 1010.74 1011.11 1011.04 1012.01 1012.38 1012.82 1012.54 1012.96 1012.66
1022.20 1022.14 1021.82 1021.47 1021.36 1020.93 1020.32 1020.20 1019.97 1019.73 1019.47 1019.12 1018.87 1018.65 1018.57 1018.87 1018.69 1016.73 1016.31 1016.35 1016.33 1016.41 1016.45 1016.16 1016.13 1016.44 1016.04 1015.10 1013.87 1012.89 1011.24 1010.43 1010.58 1010.25 1010.41 1010.68 1010.95 1011.25 1011.34 1012.13 1012.58 1012.06 1012.00 1012.78 1013.01
1022.25 1022.13 1021.90 1021.33 1021.40 1020.82 1020.32 1019.91 1019.54 1019.34 1019.07 1018.85 1018.70 1018.46 1018.70 1019.09 1018.25 1016.50 1016.21 1016.25 1016.32 1016.39 1016.65 1016.67 1016.44 1016.14 1016.03 1015.41 1014.24 1012.95 1011.98 1010.76 1010.86 1010.66 1010.76 1010.63 1011.23 1011.53 1011.45 1012.28 1012.43 1011.90 1011.80 1012.92 1013.20
1022.21 1022.05 1021.87 1021.46 1021.26 1021.03 1020.54 1019.97 1019.30 1018.92 1018.71 1018.63 1018.43 1018.45 1018.92 1018.81 1016.58 1016.19 1016.13 1016.09 1015.99 1016.31 1016.33 1016.34 1016.15 1015.92 1015.62 1015.36 1015.12 1012.75 1012.14 1011.31 1011.11 1011.16 1010.89 1011.04 1011.52 1011.94 1012.13 1012.33 1012.55 1012.84 1012.58 1013.12 1013.65
1022.29 1022.07 1021.91 1021.49 1021.14 1020.76 1020.08 1019.57 1019.04 1018.59 1018.23 1018.21 1018.12 1018.48 1018.89 1017.91 1016.21 1015.98 1015.97 1015.45 1015.24 1015.53 1015.71 1015.85 1016.02 1015.92 1015.33 1015.44 1014.67 1012.89 1012.73 1011.65 1011.41 1011.27 1011.73 1011.56 1012.24 1012.75 1012.78 1012.70 1013.91 1013.47 1013.25 1013.23 1013.56
1022.18 1022.06 1021.78 1021.35 1020.88 1020.54 1019.97 1019.12 1018.51 1018.12 1017.63 1017.47 1017.56 1018.36 1017.94 1016.44 1016.04 1015.95 1015.34 1014.83 1014.80 1015.10 1015.33 1015.45 1015.79 1015.89 1015.38 1015.09 1013.69 1013.05 1012.93 1011.99 1011.55 1011.72 1012.09 1011.89 1012.82 1013.06 1012.92 1012.82 1013.61 1013.43 1013.71 1013.49 1013.11
1022.01 1021.92 1021.58 1021.05 1020.66 1020.18 1019.55 1018.63 1018.07 1017.72 1017.31 1017.19 1017.81 1018.34 1017.48 1015.86 1015.84 1015.30 1015.27 1014.90 1014.88 1014.77 1014.99 1015.12 1015.60 1015.60 1015.46 1015.36 1014.18 1012.87 1012.56 1012.11 1012.18 1011.88 1012.34 1012.52 1013.56 1013.60 1013.36 1013.13 1013.77 1013.92 1013.63 1013.61 1013.11
1021.94 1021.62 1021.42 1020.76 1020.40 1019.76 1018.94 1018.28 1018.16 1017.67 1017.74 1017.44 1018.10 1018.76 1017.11 1016.29 1015.75 1015.43 1015.10 1014.97 1015.03 1014.76 1014.87 1015.17 1015.16 1015.39 1015.55 1015.24 1013.47 1012.48 1012.70 1012.50 1012.15 1012.30 1012.39 1012.49 1013.81 1014.18 1014.03 1013.67 1013.88 1014.18 1013.62 1013.34 1012.99
1021.72 1021.43 1021.38 1020.68 1020.36 1019.92 1019.23 1018.72 1019.50 1019.31 1019.18 1019.22 1019.31 1018.99 1017.68 1016.49 1015.77 1015.61 1015.13 1015.06 1014.95 1015.28 1015.30 1015.67 1015.22 1014.46 1014.50 1014.31 1012.96 1012.47 1012.68 1012.79 1012.79 1012.70 1013.09 1013.48 1014.20 1014.33 1013.99 1014.04 1014.07 1013.70 1013.16 1013.19 1013.03
1021.57 1021.36 1021.17 1020.65 1020.38 1020.10 1020.09 1020.83 1021.75 1021.97 1020.92 1019.66 1019.37 1018.99 1017.89 1017.25 1016.44 1015.87 1015.33 1015.47 1015.61 1015.64 1015.70 1015.68 1015.51 1014.96 1014.89 1014.18 1013.17 1012.28 1012.67 1013.28 1013.29 1013.41 1013.57 1014.24 1014.39 1014.09 1013.90 1013.70 1013.12 1013.13 1012.72 1012.76 1012.73
1021.40 1021.23 1021.05 1020.56 1020.25 1020.99 1021.41 1021.67 1021.61 1021.64 1021.74 1020.06 1019.16 1018.57 1017.67 1017.34 1017.11 1016.73 1016.66 1016.32 1016.26 1016.20 1015.75 1015.59 1015.40 1014.71 1014.21 1014.00 1012.63 1012.31 1012.63 1012.70 1013.01 1013.85 1014.15 1014.48 1014.38 1013.85 1013.48 1013.41 1013.08 1012.20 1012.46 1012.26 1012.19
1021.34 1021.25 1020.82 1020.33 1020.90 1021.67 1021.86 1021.87 1021.73 1021.76 1022.44 1021.33 1019.61 1018.48 1017.73 1017.49 1017.39 1016.94 1016.91 1017.22 1016.44 1016.58 1016.19 1015.69 1014.75 1014.54 1014.78 1014.18 1013.30 1012.77 1012.58 1012.56 1013.33 1014.60 1014.54 1014.39 1014.19 1013.64 1013.06 1012.43 1012.24 1012.49 1012.08 1011.70 1011.89
1021.26 1021.23 1020.95 1020.38 1021.41 1021.86 1022.11 1021.71 1021.84 1021.94 1023.01 1022.13 1020.28 1018.81 1018.43 1018.66 1018.81 1017.10 1017.00 1016.89 1017.19 1016.96 1016.49 1016.20 1015.27 1015.38 1015.36 1014.48 1013.38 1013.56 1013.06 1013.72 1014.45 1014.77 1015.07 1014.94 1014.65 1013.72 1013.11 1012.87 1012.35 1012.06 1011.43 1011.21 1011.65
1021.32 1021.10 1020.93 1021.05 1021.69 1022.24 1022.25 1022.00 1022.36 1023.49 1024.00 1022.99 1021.69 1020.59 1019.83 1019.55 1019.04 1018.17 1017.64 1017.64 1017.56 1017.08 1016.61 1016.51 1015.50 1015.54 1015.65 1014.61 1013.71 1013.64 1013.82 1014.76 1015.81 1016.26 1016.31 1015.68 1015.06 1013.87 1013.04 1012.55 1012.65 1012.68 1012.28 1011.66 1011.56
1021.16 1021.25 1021.12 1020.95 1021.84 1022.12 1022.51 1022.95 1024.18 1024.72 1025.70 1024.73 1023.46 1022.50 1022.14 1021.69 1020.52 1019.82 1019.58 1019.49 1019.98 1019.12 1018.58 1017.77 1017.23 1016.61 1015.92 1015.32 1014.67 1014.76 1015.38 1016.93 1017.76 1017.98 1017.57 1016.40 1015.70 1014.48 1013.51 1012.88 1013.45 1013.51 1013.02 1012.81 1012.65
1020.98 1021.11 1021.03 1020.97 1021.72 1022.09 1023.19 1024.53 1025.59 1026.67 1026.41 1025.18 1024.53 1023.72 1023.35 1023.27 1022.57 1022.10 1021.36 1021.30 1021.11 1021.08 1020.49 1019.88 1019.02 1018.46 1017.60 1017.05 1016.69 1016.29 1016.62 1017.79 1018.62 1019.19 1018.51 1017.32 1016.25 1015.20 1014.48 1014.22 1014.32 1014.34 1014.09 1013.95 1013.78
1020.96 1021.29 1021.40 1021.34 1021.60 1022.39 1023.94 1025.93 1026.55 1026.22 1025.79 1025.53 1024.96 1024.98 1024.75 1024.24 1024.10 1023.72 1023.77 1023.16 1022.46 1022.07 1021.60 1020.78 1019.97 1019.11 1018.58 1017.87 1017.34 1017.13 1017.54 1018.04 1019.02 1020.19 1019.04 1018.15 1016.50 1015.69 1015.22 1015.07 1015.26 1015.26 1015.15 1015.11 1014.86
1021.21 1021.38 1021.35 1021.47 1021.65 1022.73 1024.84 1027.33 1027.47 1026.36 1025.48 1025.70 1025.85 1025.84 1026.05 1025.51 1025.13 1024.75 1024.82 1024.30 1023.23 1022.64 1022.25 1021.47 1020.95 1020.01 1019.28 1018.32 1017.70 1017.37 1017.80 1018.49 1019.24 1020.27 1019.88 1018.86 1017.66 1016.98 1016.51 1016.40 1016.25 1016.24 1016.21 1016.09 1015.66
1021.48 1021.60 1021.16 1021.31 1021.77 1023.74 1026.46 1027.58 1027.21 1026.11 1025.17 1025.60 1025.75 1025.84 1026.00 1026.36 1026.31 1025.84 1025.28 1024.54 1023.96 1022.88 1022.38 1021.91 1021.50 1020.73 1020.00 1020.29 1019.76 1018.84 1018.63 1019.08 1019.62 1020.24 1020.12 1019.64 1018.83 1017.86 1017.61 1017.57 1017.44 1017.13 1016.95 1016.79 1016.37
1021.76 1022.46 1021.44 1021.21 1023.28 1026.28 1027.52 1027.31 1026.58 1025.98 1025.22 1025.12 1025.43 1025.25 1025.40 1025.69 1026.13 1026.15 1025.39 1024.54 1024.14 1023.63 1023.22 1022.64 1022.26 1021.81 1021.44 1020.86 1020.45 1020.08 1020.03 1019.99 1020.16 1020.82 1020.52 1019.82 1019.22 1018.25 1018.13 1018.12 1017.89 1017.49 1017.09 1016.91 1016.79
1022.09 1022.29 1021.53 1021.37 1024.14 1026.66 1027.65 1027.58 1026.78 1026.01 1025.40 1025.03 1025.31 1025.10 1025.29 1025.79 1026.22 1026.02 1025.25 1024.50 1024.04 1024.01 1023.91 1023.43 1023.45 1023.28 1022.50 1021.98 1021.25 1020.88 1020.73 1020.55 1020.71 1020.95 1020.91 1020.47 1019.57 1018.69 1018.50 1018.46 1018.34 1018.19 1017.73 1017.53 1017.24
1022.27 1023.20 1023.16 1022.96 1024.58 1025.40 1027.33 1027.77 1027.02 1025.84 1025.15 1024.73 1024.79 1025.01 1025.23 1025.75 1025.92 1026.11 1025.59 1024.63 1024.34 1024.20 1024.14 1024.05 1024.82 1025.16 1024.59 1023.79 1023.05 1022.16 1021.41 1021.13 1021.24 1021.66 1021.24 1020.69 1019.99 1019.35 1019.38 1019.50 1019.29 1019.00 1018.53 1018.29 1017.93
1021.98 1023.09 1023.23 1024.20 1025.07 1025.47 1025.82 1026.43 1026.39 1025.77 1025.08 1024.82 1024.78 1024.95 1024.97 1026.18 1026.32 1025.95 1026.05 1025.19 1024.73 1024.84 1024.78 1025.56 1026.81 1027.04 1026.26 1025.45 1024.23 1023.24 1022.38 1021.82 1021.62 1021.77 1021.66 1021.27 1020.96 1020.31 1020.13 1020.16 1020.26 1020.22 1019.69 1019.28 1018.97
1021.71 1022.69 1023.11 1023.33 1024.01 1024.82 1025.29 1025.86 1024.96 1024.92 1024.39 1024.62 1024.48 1024.61 1024.60 1025.22 1025.24 1025.50 1025.76 1025.75 1025.69 1025.78 1026.15 1026.90 1028.49 1029.10 1028.64 1027.26 1025.92 1024.27 1022.89 1022.13 1021.86 1021.74 1021.73 1021.69 1021.72 1021.26 1021.05 1020.99 1020.88 1020.90 1020.70 1020.56 1020.23
1020.56 1020.91 1021.33 1023.05 1023.82 1024.11 1024.06 1024.32 1023.77 1023.42 1023.84 1023.56 1023.73 1024.22 1024.64 1024.57 1025.02 1025.38 1025.57 1026.18 1026.25 1026.69 1027.54 1028.51 1029.89 1031.19 1031.02 1029.35 1027.22 1025.58 1023.30 1022.42 1021.93 1021.68 1021.59 1021.78 1021.80 1021.69 1021.70 1021.62 1021.55 1021.44 1021.27 1021.12 1020.84
Wind_Speed
6 8 10 11 11 13 13 14 15 15 15 16 16 16 17 18 19 6 10 8 5 12 14 10 6 9 5 6 5 4 5 15 17 15 5 1 5 3 1 2 4 3 1 3 16
6 8 9 11 12 13 14 14 15 15 16 16 16 16 16 17 7 13 9 8 7 12 7 4 9 7 5 5 7 6 13 19 7 5 6 3 6 1 5 5 6 9 15 13 18
7 8 9 12 13 13 15 16 16 16 16 16 15 15 14 8 5 5 2 0 12 10 4 3 3 4 6 8 10 9 13 10 5 6 9 6 5 3 6 5 4 8 3 11 17
6 8 10 11 13 15 16 16 17 17 17 16 15 12 11 3 4 3 7 14 9 6 6 4 5 3 6 7 10 13 15 15 7 4 7 6 5 6 5 3 3 9 10 12 14
7 9 11 12 15 16 18 18 18 17 17 15 12 8 4 3 8 7 10 5 3 2 3 4 4 4 6 7 12 14 10 16 6 10 5 9 7 3 2 4 7 6 8 9 9
8 9 11 13 15 17 20 21 19 17 16 14 9 2 4 5 6 7 7 5 7 5 4 6 5 8 5 10 16 3 11 13 8 5 3 2 5 5 5 7 10 6 3 3 5
8 10 12 14 15 18 20 22 20 19 16 10 2 3 3 12 4 5 7 7 11 11 15 6 3 4 7 5 13 15 5 7 6 8 4 5 2 6 7 9 7 6 5 5 4
9 10 12 14 16 18 21 23 22 17 9 6 3 3 6 6 5 10 12 13 10 12 12 8 6 4 5 6 7 6 2 7 6 8 3 9 12 2 8 10 9 8 4 7 8
9 10 12 14 16 19 22 23 14 11 5 1 5 4 9 5 8 8 4 7 4 3 6 7 6 4 4 6 4 6 4 3 7 15 4 13 3 4 8 8 6 9 6 6 7
9 11 12 13 15 18 22 12 6 7 7 3 3 2 5 11 11 6 4 6 4 1 4 4 5 4 2 4 7 9 5 2 3 6 7 10 4 2 6 4 10 10 7 6 7
9 11 12 13 14 15 11 5 8 6 9 2 5 4 9 10 4 14 9 5 2 7 4 4 1 4 8 15 6 8 12 7 1 5 6 8 12 9 4 5 7 14 8 6 7
9 11 12 10 11 10 4 6 2 3 6 3 5 6 8 3 5 16 14 5 5 3 1 4 3 7 12 13 9 7 9 5 1 9 5 8 9 7 8 8 6 8 9 9 4
8 9 9 9 2 6 4 3 5 2 2 7 5 5 8 4 2 9 7 5 2 4 6 6 4 8 7 1 7 6 7 4 8 7 2 5 3 4 6 10 9 14 8 6 8
6 8 10 6 5 1 2 5 4 3 7 9 8 5 10 3 3 4 3 1 3 2 3 4 6 12 5 5 2 6 3 9 17 7 3 3 1 3 6 8 6 8 12 7 6
5 6 8 6 4 3 4 4 3 5 5 10 9 6 11 7 6 7 2 5 5 5 3 1 6 9 8 5 2 2 6 7 5 5 3 4 3 2 2 2 6 11 13 10 5
5 5 3 4 3 2 5 2 5 10 5 7 6 8 8 7 9 6 7 5 2 7 7 4 3 5 1 4 3 1 8 9 5 3 3 3 2 4 1 2 1 4 10 8 5
5 4 3 4 2 1 1 4 7 8 5 8 4 6 4 7 9 10 10 12 9 8 10 9 6 9 6 5 6 8 6 4 6 5 3 5 3 5 7 5 4 7 8 9 9
8 0 2 3 1 4 4 7 6 3 6 4 3 4 6 7 6 10 5 9 9 7 4 5 8 11 10 4 1 5 2 6 5 3 2 3 2 2 6 7 7 6 7 9 11
2 2 2 2 4 4 7 5 9 8 4 2 2 7 7 4 3 5 6 5 4 10 6 4 6 5 2 4 2 4 6 2 6 3 4 2 5 3 9 11 10 10 10 10 9
3 1 1 2 5 5 7 4 3 3 2 1 4 2 2 4 4 5 5 4 8 8 8 4 4 2 7 3 3 4 2 4 4 3 2 3 3 3 9 10 9 11 10 9 8
3 4 3 3 5 7 5 7 5 6 2 2 3 3 3 1 3 2 2 2 6 7 7 4 3 7 4 7 4 7 4 5 5 3 4 2 2 2 4 5 6 7 7 7 7
3 2 2 3 6 2 4 6 3 2 2 2 1 2 3 2 3 1 2 2 7 4 4 3 3 3 1 2 1 2 2 2 5 2 1 1 3 1 3 4 5 7 7 4 5
4 3 2 5 4 1 2 3 2 3 3 4 2 2 1 2 4 2 2 4 5 6 3 4 4 2 4 6 5 4 2 3 4 2 1 4 4 4 6 8 9 9 10 8 7
4 1 5 4 1 9 7 3 1 2 3 3 3 1 3 2 3 3 2 2 5 5 8 1 3 4 5 3 0 2 2 1 3 3 3 4 3 5 7 7 9 10 9 8 8
2 4 4 3 3 4 4 5 5 4 2 3 2 3 5 3 2 1 2 4 3 10 5 5 3 4 3 5 2 3 3 1 3 3 3 3 2 5 8 8 6 5 8 11 11
6 5 2 3 3 7 1 7 10 5 7 4 4 5 5 4 5 7 3 2 2 5 4 4 1 2 4 6 6 3 4 4 3 3 5 6 6 5 5 5 7 8 7 6 7
2 1 4 6 3 5 6 7 10 9 2 3 6 5 4 3 4 2 3 2 3 2 2 4 4 5 5 6 7 7 5 1 1 2 3 4 2 3 5 6 6 7 7 7 7
Wind_Direction
3 353 344 343 347 343 339 337 336 336 333 331 330 327 324 323 322 321 270 232 255 286 302 285 297 287 265 247 223 240 219 213 203 191 155 47 142 342 182 84 58 13 136 264 150
350 344 340 337 340 334 330 327 328 328 327 327 325 323 325 325 318 291 247 248 303 341 340 238 279 334 281 254 240 221 220 216 175 154 155 132 110 306 69 52 11 356 356 144 152
342 338 336 335 332 331 323 321 323 325 325 323 320 322 324 345 335 265 266 226 1 8 328 290 238 318 276 258 247 219 234 207 177 141 137 127 83 31 103 61 73 312 244 181 160
333 331 330 329 322 322 320 322 322 323 322 318 321 326 325 54 331 258 336 327 356 1 3 332 270 189 267 268 247 258 241 215 192 162 126 108 110 97 82 111 286 307 189 188 178
334 331 330 330 324 322 320 320 319 321 317 317 319 342 60 15 253 265 287 295 328 13 209 272 279 204 219 236 301 256 288 227 232 169 119 107 83 103 245 96 349 343 132 186 178
339 339 332 333 330 325 320 318 317 317 315 312 313 49 86 281 231 247 251 267 245 261 224 212 227 216 234 233 271 262 226 242 171 164 108 109 78 5 81 33 19 343 148 171 195
339 336 334 333 329 324 318 314 316 314 308 303 293 111 222 258 237 241 263 247 256 243 255 221 240 242 166 289 238 268 311 212 193 202 124 91 300 256 79 69 325 352 320 241 195
334 338 333 331 330 326 319 313 314 309 298 296 160 115 249 251 266 278 287 280 261 249 238 240 216 225 213 273 274 197 306 212 163 190 178 109 209 9 52 67 3 351 319 274 233
329 334 330 331 331 328 317 315 313 305 333 316 88 119 268 293 326 327 338 306 313 205 222 207 185 205 168 253 249 142 182 169 165 184 132 159 167 351 339 41 353 313 315 276 239
322 325 324 328 333 328 322 328 336 6 352 60 78 66 301 316 326 323 317 345 274 198 111 183 194 171 81 243 183 158 142 22 169 145 144 146 101 318 291 62 307 290 298 303 271
312 318 319 329 336 333 345 19 19 349 33 115 287 249 279 296 310 349 348 324 123 35 30 69 118 200 209 229 259 113 144 120 169 83 89 162 209 245 265 299 190 281 276 264 255
310 318 318 327 340 346 29 70 177 212 321 295 262 261 263 256 315 350 351 31 25 33 12 76 344 206 226 229 277 90 119 110 96 143 90 159 218 216 185 247 242 243 250 246 225
320 325 333 333 9 40 74 62 308 161 33 302 266 275 306 8 331 334 15 325 21 23 58 69 222 231 141 255 46 53 107 127 125 153 252 116 251 194 220 215 246 270 256 260 224
329 333 330 346 70 33 31 335 326 74 70 319 342 349 332 296 347 302 2 292 331 34 187 124 298 91 111 325 16 66 75 92 118 149 148 243 289 224 220 243 269 295 267 256 250
334 344 22 69 138 68 294 349 329 54 48 316 307 299 321 49 273 334 35 351 2 304 272 37 7 79 105 241 306 328 66 81 96 69 89 351 68 268 115 229 264 273 286 275 238
328 345 40 39 56 72 323 51 47 45 265 330 325 350 7 355 341 312 19 16 289 351 14 15 333 56 339 315 27 173 65 53 59 47 36 316 110 323 249 176 306 287 301 305 284
333 318 79 109 140 53 29 45 38 110 343 305 333 355 337 342 357 11 13 34 13 17 1 337 5 332 27 38 14 52 54 39 16 15 209 331 62 247 316 308 359 331 4 12 12
332 312 74 119 78 96 57 44 80 213 230 278 341 318 52 349 5 358 16 19 20 359 34 39 342 0 342 53 53 26 63 140 170 173 154 7 236 18 297 13 30 25 19 19 18
12 359 59 147 100 85 75 51 201 191 178 213 62 58 345 7 44 39 13 18 339 0 7 357 312 329 269 326 20 327 46 175 105 22 62 293 293 95 6 26 19 16 19 6 3
101 59 204 6 114 79 78 230 203 205 141 101 126 139 105 311 50 61 14 311 341 357 330 348 347 330 291 323 360 76 162 56 6 82 332 345 2 321 359 355 356 7 11 358 359
63 57 245 42 77 52 151 217 220 235 143 167 194 123 154 139 122 88 340 252 354 321 321 314 108 299 30 20 5 356 28 48 107 106 144 120 284 287 1 349 349 353 4 1 0
116 55 292 89 61 42 136 192 202 161 126 153 117 134 146 168 95 123 145 170 346 310 4 327 326 55 97 213 220 98 105 63 114 235 7 115 267 6 17 5 6 357 342 353 7
142 199 339 94 141 149 158 307 234 138 182 157 187 188 112 96 87 179 245 260 17 28 26 322 343 45 357 1 6 32 22 77 89 53 235 122 261 16 52 15 351 343 346 350 351
90 86 335 56 84 131 142 203 93 301 174 152 138 137 94 69 41 185 327 358 346 9 9 344 72 144 180 207 254 296 12 85 99 94 182 218 291 314 333 350 349 348 348 355 350
62 234 196 211 269 124 102 133 141 168 302 186 24 217 154 108 23 47 294 340 33 0 32 77 105 9 334 9 318 252 276 143 185 165 186 210 263 299 328 336 7 349 7 13 5
148 147 341 143 116 108 222 216 163 179 149 226 185 182 166 152 177 181 161 131 197 358 46 13 162 91 319 351 358 281 303 260 221 177 229 267 287 2 42 39 25 11 7 17 352
178 86 109 156 123 105 199 184 193 143 231 219 161 136 169 207 171 155 112 125 132 109 97 70 96 55 275 344 340 350 216 195 152 194 181 201 194 342 30 49 21 2 6 356 345